Find Iridium 11

NORAD ID: 24842 Int'l Des: 1997-030 Owner: IRID Country: US Constellation: iridium operational
LEOCIRCULARPOLAR

实时位置

正在加载3D地球...

关于 Iridium 11

正在加载描述...

即将过境

Passes for default location (London). Set your location on the main map for personalized predictions.

高度历史

Loading altitude history...

两行轨道根数

1 24842U 97030G 26134.22995357 .00000338 00000-0 85093-4 0 9990
2 24842 86.4454 64.5615 0016394 75.2930 285.0090 14.48084961522984
Epoch: May 14, 2026 • Age: 11 hours

当前状态

高度 767.5 km
速度 7.46 km/s
星下点 -62.71°S, 130.02°E
发射日期 Jun 18, 1997
运行时间 28.9 years
类型 communications

技术详情

分类 Payload
质量 662.00 kg
干质量 556.00 kg
总质量 662.00 kg
长度 3.50 m
直径 1.00 m
跨度 5.00 m
形状 Box + 2 Pan
制造商 MOTO/LMMS
平台类型 LM700
阶段状态 In Orbit
所有者/国家 IRID/US

Most Searched